QPF
0.01 0.01 0.04 0.04 0.05 0.06 0.07 0.07 0.10 0.09 0.08 0.09 0.09 0.10 0.09 0.09 0.07 0.08 0.06 0.06 0.05 0.07 0.08 0.09 0.10 0.09 0.08 0.08 0.08 0.08 0.07 0.06 0.05 0.05 0.04 0.03 0.04 0.04 0.04 0.03 0.02 0.02 0.04
0.00 0.01 0.04 0.04 0.05 0.07 0.07 0.08 0.09 0.07 0.06 0.07 0.07 0.09 0.10 0.07 0.06 0.06 0.07 0.06 0.06 0.08 0.09 0.09 0.08 0.08 0.06 0.06 0.06 0.06 0.06 0.04 0.05 0.05 0.05 0.04 0.05 0.05 0.04 0.03 0.04 0.05 0.06
0.00 0.01 0.03 0.05 0.06 0.05 0.04 0.07 0.09 0.08 0.08 0.08 0.07 0.07 0.08 0.06 0.06 0.07 0.07 0.06 0.07 0.07 0.08 0.08 0.07 0.09 0.07 0.05 0.06 0.06 0.04 0.03 0.04 0.04 0.04 0.05 0.06 0.06 0.04 0.04 0.04 0.05 0.05
0.00 0.01 0.02 0.04 0.05 0.04 0.04 0.04 0.04 0.04 0.04 0.05 0.05 0.04 0.06 0.08 0.08 0.09 0.06 0.06 0.07 0.06 0.06 0.08 0.07 0.10 0.09 0.07 0.06 0.06 0.04 0.03 0.04 0.03 0.03 0.04 0.06 0.06 0.07 0.05 0.04 0.06 0.06
0.00 0.01 0.02 0.03 0.03 0.04 0.05 0.04 0.04 0.03 0.02 0.03 0.05 0.06 0.06 0.08 0.08 0.09 0.08 0.08 0.09 0.08 0.07 0.09 0.11 0.11 0.09 0.10 0.10 0.08 0.05 0.03 0.03 0.02 0.02 0.04 0.07 0.07 0.06 0.06 0.05 0.06 0.09
0.00 0.01 0.02 0.03 0.02 0.02 0.03 0.04 0.04 0.04 0.02 0.02 0.04 0.06 0.07 0.07 0.08 0.09 0.08 0.07 0.08 0.09 0.09 0.10 0.12 0.13 0.10 0.09 0.10 0.09 0.06 0.04 0.02 0.02 0.04 0.06 0.07 0.06 0.05 0.06 0.06 0.07 0.07
0.01 0.01 0.01 0.03 0.02 0.03 0.03 0.04 0.04 0.04 0.02 0.03 0.04 0.06 0.06 0.06 0.08 0.07 0.06 0.06 0.08 0.09 0.10 0.11 0.10 0.11 0.11 0.12 0.14 0.14 0.10 0.06 0.03 0.03 0.05 0.07 0.08 0.06 0.05 0.04 0.04 0.04 0.03
0.01 0.01 0.01 0.02 0.03 0.03 0.03 0.04 0.04 0.03 0.02 0.03 0.04 0.05 0.06 0.05 0.05 0.06 0.06 0.07 0.07 0.07 0.06 0.06 0.07 0.10 0.11 0.13 0.14 0.17 0.16 0.08 0.05 0.04 0.05 0.06 0.06 0.06 0.05 0.04 0.04 0.04 0.03
0.00 0.00 0.00 0.01 0.02 0.03 0.04 0.04 0.05 0.03 0.03 0.03 0.04 0.04 0.06 0.06 0.06 0.07 0.07 0.07 0.07 0.07 0.06 0.06 0.06 0.07 0.09 0.13 0.14 0.16 0.17 0.12 0.06 0.05 0.06 0.06 0.06 0.05 0.05 0.05 0.05 0.04 0.04
0.00 0.00 0.00 0.00 0.01 0.01 0.03 0.05 0.03 0.02 0.02 0.02 0.03 0.05 0.07 0.06 0.06 0.06 0.08 0.08 0.08 0.08 0.08 0.07 0.05 0.06 0.07 0.08 0.10 0.14 0.14 0.11 0.06 0.05 0.06 0.08 0.09 0.08 0.07 0.06 0.04 0.04 0.04
0.00 0.00 0.01 0.01 0.01 0.01 0.02 0.04 0.04 0.02 0.01 0.02 0.02 0.04 0.04 0.05 0.07 0.08 0.09 0.09 0.09 0.09 0.09 0.07 0.05 0.05 0.04 0.05 0.07 0.10 0.12 0.10 0.07 0.06 0.06 0.08 0.09 0.08 0.08 0.07 0.05 0.04 0.03
0.00 0.00 0.00 0.00 0.01 0.01 0.01 0.02 0.02 0.02 0.02 0.01 0.02 0.04 0.05 0.06 0.07 0.07 0.08 0.08 0.08 0.07 0.05 0.04 0.03 0.02 0.01 0.02 0.04 0.05 0.06 0.08 0.07 0.05 0.06 0.08 0.09 0.09 0.09 0.07 0.05 0.05 0.03
0.01 0.01 0.00 0.00 0.01 0.01 0.01 0.02 0.01 0.01 0.01 0.01 0.01 0.03 0.04 0.04 0.04 0.04 0.04 0.04 0.04 0.02 0.01 0.02 0.02 0.01 0.01 0.01 0.01 0.02 0.04 0.05 0.08 0.07 0.09 0.09 0.10 0.10 0.09 0.07 0.06 0.05 0.05
0.01 0.01 0.01 0.01 0.01 0.01 0.01 0.02 0.02 0.01 0.01 0.01 0.01 0.01 0.02 0.02 0.02 0.02 0.01 0.02 0.02 0.01 0.01 0.01 0.00 0.00 0.00 0.00 0.01 0.01 0.03 0.03 0.05 0.08 0.11 0.11 0.13 0.12 0.09 0.07 0.06 0.06 0.07
0.01 0.01 0.01 0.01 0.01 0.01 0.01 0.02 0.02 0.01 0.01 0.01 0.00 0.01 0.01 0.01 0.01 0.01 0.01 0.01 0.01 0.01 0.00 0.01 0.00 0.00 0.00 0.01 0.01 0.02 0.03 0.03 0.04 0.05 0.06 0.08 0.10 0.12 0.11 0.09 0.09 0.09 0.08
0.00 0.01 0.01 0.01 0.02 0.02 0.01 0.02 0.03 0.02 0.02 0.01 0.01 0.00 0.00 0.01 0.01 0.01 0.00 0.01 0.01 0.00 0.00 0.01 0.01 0.01 0.01 0.01 0.01 0.03 0.03 0.03 0.03 0.03 0.04 0.05 0.07 0.07 0.08 0.10 0.09 0.11 0.13
0.00 0.00 0.01 0.01 0.02 0.01 0.01 0.01 0.02 0.02 0.02 0.02 0.01 0.01 0.01 0.01 0.00 0.00 0.01 0.01 0.01 0.01 0.00 0.01 0.01 0.01 0.00 0.01 0.02 0.04 0.03 0.03 0.03 0.02 0.03 0.04 0.04 0.04 0.04 0.07 0.10 0.12 0.14
0.00 0.00 0.01 0.01 0.01 0.01 0.01 0.01 0.01 0.01 0.02 0.02 0.02 0.01 0.01 0.01 0.00 0.00 0.01 0.02 0.01 0.01 0.01 0.01 0.02 0.01 0.01 0.01 0.02 0.03 0.05 0.03 0.02 0.02 0.02 0.03 0.03 0.03 0.03 0.06 0.09 0.09 0.11
0.00 0.00 0.01 0.01 0.01 0.01 0.01 0.01 0.01 0.01 0.02 0.01 0.01 0.01 0.01 0.01 0.01 0.01 0.01 0.01 0.01 0.01 0.01 0.01 0.02 0.02 0.01 0.01 0.01 0.03 0.05 0.03 0.01 0.01 0.01 0.03 0.04 0.04 0.06 0.09 0.10 0.08 0.11
0.00 0.00 0.00 0.01 0.01 0.00 0.00 0.00 0.01 0.01 0.01 0.01 0.01 0.01 0.02 0.01 0.01 0.01 0.01 0.01 0.01 0.01 0.01 0.01 0.02 0.01 0.01 0.01 0.02 0.02 0.04 0.03 0.02 0.01 0.01 0.02 0.03 0.04 0.06 0.07 0.07 0.06 0.10
0.00 0.00 0.00 0.01 0.01 0.01 0.01 0.01 0.01 0.01 0.01 0.01 0.00 0.01 0.01 0.01 0.01 0.01 0.01 0.01 0.01 0.01 0.01 0.01 0.01 0.01 0.00 0.01 0.01 0.02 0.04 0.04 0.02 0.01 0.01 0.03 0.03 0.05 0.06 0.08 0.05 0.04 0.06
0.00 0.00 0.00 0.01 0.01 0.00 0.00 0.00 0.01 0.01 0.01 0.01 0.01 0.01 0.01 0.00 0.00 0.01 0.01 0.01 0.01 0.01 0.01 0.01 0.02 0.01 0.01 0.01 0.01 0.03 0.05 0.04 0.03 0.02 0.03 0.05 0.04 0.04 0.05 0.06 0.03 0.02 0.02
0.00 0.00 0.00 0.00 0.00 0.01 0.01 0.01 0.01 0.01 0.01 0.01 0.01 0.01 0.01 0.01 0.01 0.01 0.00 0.01 0.01 0.01 0.01 0.02 0.02 0.02 0.02 0.01 0.02 0.04 0.06 0.03 0.03 0.03 0.05 0.05 0.03 0.01 0.02 0.02 0.02 0.01 0.01
0.00 0.01 0.01 0.01 0.01 0.01 0.02 0.01 0.01 0.01 0.01 0.01 0.00 0.01 0.01 0.01 0.01 0.01 0.00 0.00 0.01 0.01 0.01 0.01 0.02 0.02 0.02 0.02 0.03 0.05 0.04 0.02 0.02 0.04 0.06 0.04 0.02 0.01 0.01 0.01 0.01 0.01 0.01
0.01 0.01 0.01 0.01 0.01 0.01 0.01 0.00 0.01 0.01 0.01 0.01 0.00 0.01 0.01 0.01 0.01 0.00 0.00 0.01 0.01 0.01 0.01 0.01 0.01 0.01 0.02 0.02 0.05 0.05 0.02 0.02 0.02 0.03 0.05 0.04 0.03 0.02 0.02 0.01 0.01 0.01 0.01
0.01 0.01 0.01 0.01 0.01 0.00 0.00 0.00 0.01 0.01 0.01 0.01 0.00 0.00 0.01 0.01 0.01 0.00 0.01 0.01 0.01 0.01 0.01 0.01 0.02 0.02 0.03 0.04 0.05 0.04 0.02 0.02 0.02 0.03 0.05 0.03 0.04 0.04 0.03 0.04 0.03 0.02 0.03
MSLP
1016.77 1016.27 1015.84 1015.52 1015.28 1015.13 1015.01 1014.90 1014.79 1014.66 1014.52 1014.39 1014.29 1014.23 1014.23 1014.26 1014.30 1014.34 1014.34 1014.31 1014.25 1014.15 1014.05 1013.97 1013.91 1013.88 1013.89 1013.92 1013.95 1013.97 1013.98 1013.97 1013.94 1013.91 1013.89 1013.89 1013.93 1013.99 1014.09 1014.20 1014.30 1014.40 1014.46
1016.93 1016.48 1016.10 1015.81 1015.60 1015.45 1015.33 1015.21 1015.06 1014.90 1014.73 1014.59 1014.50 1014.47 1014.50 1014.56 1014.63 1014.68 1014.68 1014.63 1014.55 1014.43 1014.33 1014.25 1014.21 1014.21 1014.24 1014.30 1014.34 1014.37 1014.37 1014.34 1014.31 1014.28 1014.27 1014.29 1014.35 1014.43 1014.53 1014.63 1014.72 1014.79 1014.84
1017.03 1016.63 1016.30 1016.05 1015.87 1015.74 1015.62 1015.48 1015.32 1015.14 1014.97 1014.83 1014.75 1014.73 1014.77 1014.84 1014.91 1014.95 1014.94 1014.87 1014.77 1014.65 1014.55 1014.49 1014.48 1014.52 1014.59 1014.66 1014.72 1014.75 1014.74 1014.71 1014.68 1014.66 1014.68 1014.73 1014.81 1014.91 1015.01 1015.11 1015.19 1015.24 1015.27
1017.04 1016.70 1016.41 1016.21 1016.06 1015.95 1015.85 1015.72 1015.56 1015.39 1015.22 1015.09 1015.02 1015.01 1015.05 1015.11 1015.17 1015.19 1015.15 1015.07 1014.96 1014.85 1014.77 1014.74 1014.78 1014.86 1014.96 1015.06 1015.13 1015.15 1015.15 1015.12 1015.10 1015.10 1015.14 1015.22 1015.33 1015.45 1015.57 1015.66 1015.72 1015.76 1015.77
1016.96 1016.66 1016.43 1016.27 1016.17 1016.10 1016.02 1015.92 1015.79 1015.63 1015.49 1015.38 1015.32 1015.32 1015.35 1015.41 1015.44 1015.44 1015.38 1015.29 1015.18 1015.09 1015.05 1015.07 1015.15 1015.28 1015.41 1015.53 1015.60 1015.63 1015.62 1015.60 1015.58 1015.61 1015.69 1015.80 1015.94 1016.09 1016.21 1016.30 1016.35 1016.37 1016.37
1016.84 1016.58 1016.39 1016.28 1016.22 1016.19 1016.15 1016.09 1016.00 1015.88 1015.77 1015.69 1015.65 1015.66 1015.70 1015.74 1015.76 1015.74 1015.68 1015.59 1015.50 1015.44 1015.44 1015.51 1015.63 1015.80 1015.96 1016.09 1016.16 1016.19 1016.18 1016.16 1016.16 1016.22 1016.32 1016.48 1016.65 1016.81 1016.94 1017.02 1017.06 1017.05 1017.03
1016.74 1016.51 1016.36 1016.29 1016.27 1016.28 1016.28 1016.26 1016.20 1016.13 1016.06 1016.01 1016.00 1016.03 1016.08 1016.13 1016.15 1016.13 1016.08 1016.00 1015.94 1015.92 1015.96 1016.07 1016.23 1016.42 1016.60 1016.73 1016.80 1016.82 1016.80 1016.79 1016.81 1016.90 1017.04 1017.22 1017.42 1017.60 1017.73 1017.81 1017.82 1017.79 1017.75
1016.74 1016.54 1016.41 1016.36 1016.38 1016.41 1016.44 1016.45 1016.42 1016.39 1016.35 1016.35 1016.37 1016.43 1016.51 1016.58 1016.62 1016.62 1016.58 1016.54 1016.51 1016.53 1016.61 1016.75 1016.93 1017.13 1017.30 1017.42 1017.48 1017.48 1017.47 1017.46 1017.50 1017.61 1017.79 1018.00 1018.22 1018.42 1018.55 1018.61 1018.61 1018.56 1018.50
1016.90 1016.70 1016.58 1016.55 1016.57 1016.62 1016.66 1016.69 1016.68 1016.67 1016.67 1016.70 1016.76 1016.86 1016.96 1017.07 1017.14 1017.18 1017.18 1017.17 1017.18 1017.23 1017.34 1017.49 1017.68 1017.87 1018.02 1018.12 1018.16 1018.15 1018.13 1018.13 1018.19 1018.33 1018.53 1018.77 1019.01 1019.22 1019.35 1019.40 1019.38 1019.31 1019.23
1017.20 1017.00 1016.89 1016.86 1016.88 1016.93 1016.97 1016.99 1016.99 1016.99 1017.01 1017.06 1017.16 1017.29 1017.44 1017.58 1017.70 1017.78 1017.83 1017.86 1017.90 1017.98 1018.10 1018.26 1018.43 1018.60 1018.72 1018.79 1018.81 1018.79 1018.76 1018.77 1018.85 1019.01 1019.23 1019.49 1019.75 1019.96 1020.10 1020.15 1020.12 1020.04 1019.94
1017.62 1017.42 1017.32 1017.28 1017.30 1017.32 1017.35 1017.35 1017.35 1017.35 1017.37 1017.44 1017.56 1017.72 1017.91 1018.10 1018.26 1018.38 1018.48 1018.55 1018.63 1018.72 1018.85 1019.00 1019.15 1019.29 1019.38 1019.42 1019.42 1019.39 1019.36 1019.38 1019.47 1019.65 1019.89 1020.16 1020.43 1020.65 1020.79 1020.84 1020.80 1020.72 1020.62
1018.08 1017.90 1017.80 1017.77 1017.77 1017.79 1017.79 1017.78 1017.76 1017.75 1017.77 1017.84 1017.97 1018.15 1018.37 1018.58 1018.79 1018.96 1019.09 1019.20 1019.31 1019.42 1019.55 1019.69 1019.82 1019.93 1020.00 1020.02 1020.00 1019.97 1019.94 1019.97 1020.07 1020.26 1020.50 1020.79 1021.06 1021.28 1021.42 1021.48 1021.45 1021.37 1021.27
1018.52 1018.37 1018.29 1018.26 1018.27 1018.28 1018.27 1018.24 1018.21 1018.18 1018.20 1018.26 1018.39 1018.58 1018.80 1019.04 1019.27 1019.47 1019.64 1019.79 1019.92 1020.05 1020.18 1020.31 1020.44 1020.53 1020.59 1020.60 1020.58 1020.55 1020.54 1020.58 1020.68 1020.87 1021.11 1021.39 1021.66 1021.87 1022.02 1022.08 1022.06 1021.99 1021.90
1018.90 1018.78 1018.73 1018.72 1018.74 1018.75 1018.75 1018.72 1018.68 1018.65 1018.65 1018.70 1018.82 1018.99 1019.21 1019.45 1019.69 1019.92 1020.12 1020.29 1020.46 1020.61 1020.75 1020.89 1021.02 1021.11 1021.17 1021.19 1021.18 1021.16 1021.16 1021.21 1021.32 1021.49 1021.72 1021.98 1022.24 1022.45 1022.59 1022.66 1022.66 1022.60 1022.52
1019.18 1019.11 1019.09 1019.11 1019.15 1019.19 1019.20 1019.19 1019.16 1019.13 1019.13 1019.16 1019.26 1019.40 1019.60 1019.82 1020.06 1020.30 1020.52 1020.72 1020.91 1021.10 1021.27 1021.42 1021.57 1021.67 1021.75 1021.79 1021.80 1021.80 1021.82 1021.87 1021.98 1022.14 1022.34 1022.58 1022.80 1023.00 1023.14 1023.21 1023.22 1023.18 1023.11
1019.40 1019.36 1019.37 1019.42 1019.50 1019.57 1019.62 1019.64 1019.63 1019.62 1019.61 1019.63 1019.70 1019.81 1019.97 1020.17 1020.39 1020.63 1020.86 1021.09 1021.31 1021.52 1021.73 1021.91 1022.08 1022.21 1022.31 1022.38 1022.42 1022.45 1022.48 1022.53 1022.63 1022.77 1022.94 1023.14 1023.34 1023.51 1023.64 1023.72 1023.75 1023.73 1023.68
1019.58 1019.57 1019.60 1019.67 1019.78 1019.89 1019.98 1020.05 1020.08 1020.10 1020.10 1020.11 1020.15 1020.22 1020.34 1020.50 1020.69 1020.92 1021.16 1021.41 1021.66 1021.90 1022.13 1022.35 1022.54 1022.70 1022.83 1022.92 1022.99 1023.04 1023.09 1023.14 1023.23 1023.34 1023.48 1023.64 1023.81 1023.96 1024.08 1024.17 1024.21 1024.22 1024.19
1019.78 1019.76 1019.80 1019.88 1020.01 1020.15 1020.29 1020.41 1020.50 1020.55 1020.57 1020.58 1020.59 1020.63 1020.70 1020.82 1020.98 1021.19 1021.42 1021.69 1021.96 1022.22 1022.48 1022.72 1022.94 1023.11 1023.26 1023.37 1023.46 1023.53 1023.58 1023.64 1023.72 1023.81 1023.92 1024.04 1024.18 1024.31 1024.43 1024.53 1024.60 1024.63 1024.63
1020.00 1019.97 1019.99 1020.06 1020.20 1020.37 1020.55 1020.73 1020.87 1020.97 1021.02 1021.03 1021.03 1021.03 1021.06 1021.14 1021.27 1021.45 1021.68 1021.94 1022.22 1022.50 1022.77 1023.02 1023.23 1023.42 1023.57 1023.69 1023.79 1023.87 1023.94 1024.00 1024.06 1024.13 1024.22 1024.32 1024.43 1024.55 1024.67 1024.79 1024.89 1024.96 1024.99
1020.25 1020.19 1020.17 1020.23 1020.35 1020.54 1020.76 1020.99 1021.19 1021.34 1021.43 1021.46 1021.45 1021.43 1021.42 1021.46 1021.56 1021.72 1021.93 1022.18 1022.46 1022.74 1023.00 1023.23 1023.43 1023.61 1023.75 1023.86 1023.97 1024.05 1024.12 1024.19 1024.25 1024.32 1024.38 1024.47 1024.56 1024.68 1024.81 1024.94 1025.08 1025.19 1025.28
1020.49 1020.40 1020.34 1020.37 1020.48 1020.67 1020.93 1021.20 1021.46 1021.66 1021.79 1021.85 1021.85 1021.81 1021.79 1021.80 1021.86 1021.99 1022.19 1022.42 1022.68 1022.93 1023.17 1023.38 1023.55 1023.69 1023.81 1023.91 1024.01 1024.09 1024.17 1024.25 1024.31 1024.38 1024.44 1024.51 1024.60 1024.71 1024.85 1025.01 1025.18 1025.35 1025.49
1020.67 1020.56 1020.47 1020.47 1020.56 1020.76 1021.04 1021.36 1021.67 1021.93 1022.11 1022.20 1022.21 1022.18 1022.14 1022.13 1022.18 1022.28 1022.45 1022.66 1022.89 1023.11 1023.31 1023.47 1023.60 1023.70 1023.79 1023.87 1023.96 1024.05 1024.14 1024.22 1024.30 1024.36 1024.42 1024.49 1024.57 1024.69 1024.83 1025.02 1025.22 1025.44 1025.63
1020.76 1020.64 1020.54 1020.52 1020.61 1020.81 1021.12 1021.48 1021.84 1022.15 1022.37 1022.50 1022.54 1022.52 1022.48 1022.46 1022.49 1022.58 1022.72 1022.90 1023.10 1023.28 1023.44 1023.55 1023.63 1023.70 1023.75 1023.81 1023.89 1023.98 1024.08 1024.18 1024.27 1024.34 1024.40 1024.46 1024.53 1024.63 1024.78 1024.97 1025.20 1025.46 1025.71
1020.73 1020.64 1020.54 1020.52 1020.61 1020.83 1021.16 1021.55 1021.95 1022.31 1022.58 1022.74 1022.80 1022.80 1022.77 1022.75 1022.78 1022.85 1022.98 1023.14 1023.30 1023.45 1023.56 1023.64 1023.68 1023.70 1023.73 1023.78 1023.85 1023.95 1024.07 1024.18 1024.28 1024.35 1024.41 1024.45 1024.50 1024.58 1024.71 1024.90 1025.14 1025.42 1025.71
1020.59 1020.54 1020.48 1020.48 1020.58 1020.82 1021.18 1021.60 1022.03 1022.42 1022.72 1022.91 1023.00 1023.02 1023.00 1022.99 1023.02 1023.09 1023.21 1023.35 1023.50 1023.62 1023.70 1023.74 1023.75 1023.75 1023.76 1023.80 1023.88 1023.99 1024.12 1024.25 1024.36 1024.43 1024.47 1024.49 1024.51 1024.56 1024.65 1024.81 1025.04 1025.33 1025.63
1020.37 1020.39 1020.37 1020.41 1020.55 1020.81 1021.18 1021.61 1022.06 1022.47 1022.79 1023.00 1023.11 1023.15 1023.16 1023.16 1023.20 1023.28 1023.40 1023.54 1023.67 1023.77 1023.84 1023.86 1023.85 1023.84 1023.85 1023.89 1023.98 1024.10 1024.25 1024.39 1024.50 1024.57 1024.59 1024.57 1024.55 1024.55 1024.60 1024.72 1024.91 1025.18 1025.49
Thickness
5763 5763 5760 5761 5762 5763 5764 5765 5766 5766 5767 5767 5767 5768 5768 5768 5768 5769 5769 5770 5770 5771 5771 5771 5771 5771 5772 5773 5773 5773 5773 5773 5773 5773 5773 5773 5773 5773 5773 5773 5774 5774 5772
5762 5761 5758 5759 5760 5761 5761 5762 5762 5763 5764 5764 5764 5764 5765 5765 5765 5766 5766 5767 5767 5767 5767 5767 5767 5768 5769 5769 5770 5770 5770 5770 5770 5770 5771 5771 5771 5771 5771 5771 5771 5771 5769
5761 5760 5758 5757 5757 5758 5759 5759 5759 5760 5761 5761 5761 5761 5761 5761 5762 5762 5763 5763 5763 5764 5764 5764 5764 5764 5765 5765 5766 5766 5766 5767 5767 5768 5769 5770 5769 5768 5768 5768 5767 5767 5766
5759 5758 5756 5755 5755 5756 5756 5756 5757 5757 5757 5757 5758 5758 5758 5758 5758 5759 5759 5759 5760 5760 5760 5760 5760 5761 5761 5761 5762 5762 5762 5763 5764 5766 5768 5768 5767 5764 5764 5764 5764 5763 5762
5757 5756 5754 5752 5753 5753 5753 5753 5754 5754 5754 5754 5754 5754 5755 5755 5755 5755 5755 5756 5756 5756 5756 5756 5756 5756 5757 5757 5757 5758 5758 5759 5761 5763 5764 5763 5762 5760 5760 5760 5760 5760 5759
5755 5754 5751 5750 5750 5750 5750 5750 5751 5751 5751 5751 5751 5751 5751 5751 5751 5751 5752 5752 5752 5752 5752 5752 5752 5752 5752 5753 5753 5753 5754 5755 5758 5759 5759 5758 5757 5755 5756 5756 5756 5756 5755
5754 5752 5750 5747 5747 5747 5747 5747 5748 5748 5748 5748 5748 5748 5748 5748 5748 5748 5748 5748 5748 5748 5748 5748 5748 5747 5748 5748 5748 5749 5749 5750 5753 5753 5753 5753 5751 5751 5751 5751 5751 5751 5751
5752 5751 5749 5744 5744 5744 5744 5744 5744 5744 5744 5744 5744 5744 5744 5744 5744 5744 5744 5744 5744 5744 5744 5743 5743 5743 5743 5743 5744 5744 5744 5746 5748 5749 5748 5747 5746 5746 5746 5746 5746 5746 5746
5750 5749 5748 5746 5744 5742 5741 5741 5741 5741 5741 5741 5741 5741 5740 5740 5740 5740 5740 5740 5739 5739 5739 5739 5738 5738 5739 5738 5739 5739 5739 5741 5744 5744 5744 5742 5741 5741 5741 5741 5741 5741 5741
5748 5747 5746 5745 5744 5743 5741 5738 5737 5737 5737 5737 5737 5737 5737 5737 5737 5736 5736 5735 5735 5735 5734 5734 5733 5733 5733 5733 5733 5734 5736 5739 5740 5740 5738 5736 5735 5736 5735 5735 5736 5736 5736
5744 5745 5745 5744 5742 5740 5739 5736 5736 5735 5734 5735 5735 5734 5735 5737 5736 5734 5732 5731 5730 5730 5729 5728 5728 5728 5729 5729 5729 5730 5732 5735 5735 5734 5732 5730 5730 5730 5730 5731 5731 5731 5731
5741 5742 5743 5742 5740 5739 5737 5735 5735 5734 5732 5733 5733 5733 5733 5733 5731 5729 5726 5726 5725 5725 5724 5724 5724 5725 5727 5727 5726 5727 5729 5730 5730 5728 5725 5725 5725 5725 5725 5725 5725 5726 5726
5740 5739 5740 5740 5739 5737 5735 5733 5732 5731 5729 5730 5730 5730 5729 5729 5728 5726 5725 5723 5722 5722 5723 5721 5723 5723 5724 5723 5724 5724 5724 5725 5724 5722 5720 5719 5719 5719 5720 5720 5721 5721 5721
5737 5737 5738 5738 5737 5736 5734 5731 5729 5729 5728 5727 5726 5726 5726 5725 5725 5724 5723 5721 5720 5719 5718 5719 5719 5719 5720 5720 5720 5720 5719 5719 5718 5716 5714 5714 5714 5714 5715 5715 5715 5715 5716
5735 5735 5736 5736 5735 5733 5731 5728 5728 5726 5725 5724 5722 5722 5722 5722 5721 5720 5719 5716 5717 5716 5715 5715 5715 5715 5715 5715 5714 5714 5714 5713 5713 5712 5709 5708 5709 5709 5710 5710 5711 5711 5711
5734 5734 5734 5733 5731 5730 5728 5727 5725 5723 5720 5720 5719 5719 5718 5717 5717 5716 5715 5713 5712 5711 5711 5711 5711 5710 5710 5709 5709 5709 5708 5708 5708 5707 5706 5704 5703 5704 5704 5705 5705 5706 5706
5734 5733 5731 5730 5729 5727 5725 5723 5722 5720 5719 5717 5716 5716 5715 5713 5713 5712 5711 5709 5708 5708 5708 5707 5706 5706 5705 5705 5704 5703 5703 5703 5703 5703 5701 5701 5700 5698 5698 5699 5700 5700 5701
5733 5731 5729 5727 5725 5724 5722 5720 5719 5717 5715 5714 5712 5711 5711 5710 5710 5708 5707 5706 5704 5704 5704 5702 5702 5701 5701 5700 5699 5699 5698 5697 5698 5698 5698 5697 5696 5695 5694 5694 5694 5695 5695
5732 5729 5726 5724 5723 5721 5719 5717 5715 5714 5711 5711 5709 5707 5707 5707 5706 5705 5703 5702 5701 5701 5700 5699 5698 5697 5696 5694 5694 5693 5693 5692 5693 5693 5693 5692 5691 5691 5690 5689 5689 5689 5690
5730 5728 5725 5722 5720 5718 5716 5714 5711 5710 5709 5707 5705 5704 5703 5703 5703 5702 5700 5699 5698 5698 5696 5695 5693 5692 5691 5690 5691 5689 5689 5688 5688 5688 5688 5687 5686 5687 5686 5686 5686 5685 5684
5727 5725 5722 5719 5717 5715 5712 5710 5707 5705 5705 5703 5702 5701 5700 5700 5699 5698 5698 5696 5695 5694 5693 5692 5690 5688 5687 5688 5687 5685 5685 5685 5685 5683 5683 5683 5682 5682 5682 5682 5682 5681 5681
5725 5723 5720 5718 5716 5713 5710 5708 5706 5704 5703 5701 5699 5698 5698 5697 5697 5696 5695 5693 5692 5690 5689 5688 5686 5686 5685 5685 5685 5683 5680 5678 5678 5679 5679 5678 5679 5678 5677 5677 5677 5677 5678
5723 5721 5718 5716 5715 5711 5709 5706 5704 5702 5700 5698 5696 5695 5694 5694 5694 5693 5693 5692 5690 5689 5687 5685 5684 5682 5682 5683 5684 5682 5678 5674 5674 5674 5675 5674 5674 5673 5674 5673 5674 5674 5674
5722 5721 5718 5716 5714 5711 5708 5705 5702 5698 5696 5696 5696 5694 5693 5692 5691 5691 5690 5689 5688 5687 5685 5684 5683 5682 5680 5679 5680 5679 5680 5678 5673 5670 5670 5671 5670 5670 5670 5670 5669 5669 5669
5721 5718 5717 5715 5712 5709 5707 5703 5701 5699 5697 5696 5694 5692 5692 5690 5689 5688 5688 5687 5686 5685 5683 5681 5680 5679 5679 5678 5678 5677 5676 5675 5676 5672 5667 5667 5667 5667 5667 5666 5666 5666 5665
5719 5715 5713 5711 5709 5707 5705 5703 5700 5697 5694 5692 5691 5690 5689 5688 5687 5686 5685 5684 5683 5682 5681 5679 5678 5676 5676 5675 5676 5676 5675 5673 5672 5671 5668 5665 5664 5664 5663 5663 5663 5662 5660